Portada
METAR-TAF:

METAR-TAF

Aeropuertos :

Athens, Tennessee, Estados Unidos

latitud: 35-23-50N, longitud: 084-33-45W, altitud: 262 m

Observación

El informe se hizo hace 29 minutos, a las 00:35 UTC
Viento calma
Temperatura 24°C
Humedad 83%
Presión 1016 hPa
Visibilidad: 16.1 km
Cielo despejado

METAR: KMMI 290035Z AUTO 00000KT 10SM CLR 24/21 A3001 RMK A01

Hora: 20:04 (01:04 UTC)


TAF: falta

Observaciones y pronósticos meteorológicos de más de 4000 aeropuertos (mensajes METAR y TAF).

Los puntos amarillos y rojos representan las estaciones disponibles.

Ponga el ratón en el punto deseado para ver el nombre de la estación.

Haga clic para ver las observaciones y los pronósticos meteorológicos.

Para cambiar el mapa : haga clic en los botones verdes con una cruz de color negro para hacer un zoom, en el botón verde con un guión para alejar o en las flechas verdes para mapas adyacentes.


METAR-TAF: